Location: Bryzozowice
(50.3667°N, 18.9667°E)
Time: 09:48:13
(UTC+00:00)

USA 116 - Pass Details

Date: 24 January 2020
Orbit: 405 x 834 km, 97.9° (Epoch: 18 November)

Event Time Altitude Azimuth Distance (km) Brightness Sun altitude
Exits shadow 17:16:03 54° 112° (ESE) 505 3.2 -17.8°
Drops below altitude 10° 17:18:58 10° 181° (S) 1,463 6.0 -18.3°
Sets 17:20:57 0° 186° (S) 2,322 7.1 -18.6°
